Weather History for Panama City Tyndall AFB, FL

Change the Weather History Date:

Wednesday, September 26, 2012

  Actual Average Record
Temperature  
Mean Temperature 76 °F -  
Max Temperature 84 °F 82 °F 93 °F (1998)
Min Temperature 68 °F 67 °F 56 °F (2008)
Cooling Degree Days 11    
Growing Degree Days 26 (Base 50)    
Moisture  
Dew Point 74 °F    
Average Humidity 93    
Maximum Humidity 100    
Minimum Humidity 76    
Precipitation  
Precipitation 0.00 in - - ()
Sea Level Pressure  
Sea Level Pressure 30.12 in    
Wind  
Wind Speed 5 mph (East)    
Max Wind Speed 10 mph    
Max Gust Speed -    
Visibility 10 miles    
Events      
Averages and records for this station are not official NWS values.
T = Trace of Precipitation, MM = Missing Value Source: NWS Daily Summary

Daily Weather History Graph

Daily Weather History Graph

Search for Another Location

Airport:

Trip Planner

Search our weather history database for the weather conditions in past years. The results will help you decide how hot, cold, wet, or windy it might be!

Date:

Astronomy

Sep. 26, 2012 Rise Set
Actual Time 6:33 AM CDT 6:33 PM CDT
Civil Twilight 6:09 AM CDT 6:57 PM CDT
Nautical Twilight 5:41 AM CDT 7:24 PM CDT
Astronomical Twilight 5:13 AM CDT 7:52 PM CDT
Moon 4:22 PM CDT (9/26) 3:11 AM CDT (9/26)
Length of Visible Light 12h 47m
Length of Day
12h 00m
Waxing Gibbous, 88% of the Moon is Illuminated
Sep 26
Waxing Gibbous
Sep 29
Full
Oct 8
Last Quarter
Oct 15
New
Oct 21
First Quarter

Hourly Weather History & Observations

Time (CDT) Temp. Heat Index Dew Point Humidity Pressure Visibility Wind Dir Wind Speed Gust Speed Precip Events Conditions
12:09 AM 73.4 °F - 69.8 °F 88% 30.12 in 10.0 mi ENE 4.6 mph - N/A   Mostly Cloudy
12:21 AM 73.4 °F - 71.6 °F 94% 30.12 in 10.0 mi East 5.8 mph - N/A   Mostly Cloudy
12:26 AM 73.4 °F - 71.6 °F 94% 30.11 in 10.0 mi East 5.8 mph - N/A   Mostly Cloudy
12:55 AM 73.0 °F - 71.1 °F 93% 30.11 in 10.0 mi East 6.9 mph - N/A   Partly Cloudy
1:55 AM 72.5 °F - 72.0 °F 98% 30.09 in 10.0 mi East 5.8 mph - N/A   Clear
2:55 AM 72.3 °F - 72.3 °F 100% 30.08 in 10.0 mi East 5.8 mph - N/A   Clear
3:55 AM 70.5 °F - 70.5 °F 100% 30.09 in 10.0 mi ENE 6.9 mph - N/A   Clear
5:55 AM 68.9 °F - 68.9 °F 100% 30.12 in 10.0 mi ENE 4.6 mph - N/A   Clear
6:55 AM 69.1 °F - 69.1 °F 100% 30.14 in 10.0 mi East 8.1 mph - N/A   Clear
7:55 AM 72.0 °F - 70.3 °F 95% 30.14 in 10.0 mi East 9.2 mph - N/A   Clear
8:55 AM 75.2 °F - 71.8 °F 89% 30.15 in 10.0 mi East 9.2 mph - N/A   Clear
9:55 AM 76.5 °F - 72.3 °F 87% 30.16 in 10.0 mi East 9.2 mph - N/A   Clear
10:55 AM 78.4 °F - 73.0 °F 83% 30.15 in 10.0 mi East 6.9 mph - N/A   Partly Cloudy
11:55 AM 80.8 °F 85.8 °F 73.8 °F 79% 30.16 in 10.0 mi East 4.6 mph - N/A   Partly Cloudy
12:55 PM 82.2 °F 88.8 °F 74.8 °F 78% 30.12 in 10.0 mi Variable 5.8 mph - N/A   Partly Cloudy
1:55 PM 83.3 °F 90.8 °F 75.2 °F 76% 30.11 in 10.0 mi ENE 3.5 mph - N/A   Scattered Clouds
2:55 PM 84.0 °F 93.7 °F 77.0 °F 79% 30.09 in 10.0 mi SW 10.4 mph - N/A   Scattered Clouds
3:55 PM 82.9 °F 91.8 °F 76.8 °F 82% 30.08 in 10.0 mi South 6.9 mph - 0.00 in   Drizzle
4:55 PM 81.9 °F 89.2 °F 76.3 °F 83% 30.09 in 10.0 mi SW 6.9 mph - 0.00 in   Light Drizzle
5:55 PM 80.1 °F 85.4 °F 75.7 °F 87% 30.09 in 10.0 mi West 4.6 mph - 0.00 in   Mostly Cloudy
5:57 PM 80.6 °F 86.2 °F 75.2 °F 84% 30.09 in 10.0 mi West 4.6 mph - N/A   Light Drizzle
6:14 PM 80.6 °F 86.2 °F 75.2 °F 84% 30.09 in 10.0 mi WSW 3.5 mph - N/A   Light Drizzle
6:55 PM 79.0 °F - 75.9 °F 90% 30.10 in 10.0 mi WSW 3.5 mph - 0.00 in   Light Drizzle
7:29 PM 78.8 °F - 75.2 °F 89% 30.10 in 10.0 mi Calm Calm - N/A   Light Drizzle
7:55 PM 76.3 °F - 75.9 °F 99% 30.11 in 10.0 mi Calm Calm - 0.00 in   Light Drizzle
8:03 PM 75.2 °F - 75.2 °F 100% 30.11 in 10.0 mi Calm Calm - N/A   Partly Cloudy
8:09 PM 75.2 °F - 75.2 °F 100% 30.12 in 10.0 mi Calm Calm - N/A   Light Drizzle
8:13 PM 75.2 °F - 75.2 °F 100% 30.12 in 10.0 mi Calm Calm - N/A   Light Drizzle
8:14 PM 75.2 °F - 75.2 °F 100% 30.12 in 10.0 mi Calm Calm - N/A   Mostly Cloudy
8:34 PM 75.2 °F - 75.2 °F 100% 30.13 in 10.0 mi Calm Calm - N/A   Scattered Clouds
8:37 PM 75.2 °F - 75.2 °F 100% 30.14 in 10.0 mi Calm Calm - N/A   Mostly Cloudy
8:40 PM 75.2 °F - 75.2 °F 100% 30.14 in 10.0 mi Calm Calm - N/A   Scattered Clouds
8:43 PM 75.2 °F - 75.2 °F 100% 30.14 in 10.0 mi Calm Calm - N/A   Mostly Cloudy
8:46 PM 75.2 °F - 75.2 °F 100% 30.14 in 10.0 mi Calm Calm - N/A   Scattered Clouds
8:55 PM 75.0 °F - 75.0 °F 100% 30.14 in 10.0 mi Calm Calm - 0.00 in   Partly Cloudy
9:55 PM 72.5 °F - 72.5 °F 100% 30.14 in 10.0 mi Calm Calm - N/A   Clear
10:55 PM 71.8 °F - 71.8 °F 100% 30.14 in 10.0 mi Calm Calm - N/A   Clear
11:55 PM 70.9 °F - 70.9 °F 100% 30.12 in 10.0 mi Calm Calm - N/A   Clear